Minot AFB, ND

9:53 AM CDT on July 23, 2017 (GMT -0500)
Minot Air Force Base

Weather History for KMIB - October, 2013

Change the Weather History Date:

Sunday, October 6, 2013

  Actual Average Record
Temperature  
Mean Temperature 48 °F -  
Max Temperature 70 °F 59 °F 86 °F (2003)
Min Temperature 26 °F 34 °F 18 °F (2012)
Degree Days  
Heating Degree Days 17    
Moisture  
Dew Point 31 °F    
Average Humidity 63    
Maximum Humidity 88    
Minimum Humidity 24    
Precipitation  
Precipitation 0.00 in - - ()
Sea Level Pressure  
Sea Level Pressure 30.00 in    
Wind  
Wind Speed 9 mph (West)    
Max Wind Speed 21 mph    
Max Gust Speed 28 mph    
Visibility 10 miles    
Events      
Averages and records for this station are not official NWS values.
T = Trace of Precipitation, MM = Missing Value Source: NWS Daily Summary

Daily Weather History Graph

Daily Weather History Graph

Search for Another Location

Airport or City:

Trip Planner

Search our weather history database for the weather conditions in past years. The results will help you decide how hot, cold, wet, or windy it might be!

Date:

Astronomy

Oct. 06, 2013 Rise Set
Actual Time 7:52 AM CDT 7:13 PM CDT
Civil Twilight 7:21 AM CDT 7:44 PM CDT
Nautical Twilight 6:44 AM CDT 8:20 PM CDT
Astronomical Twilight 6:08 AM CDT 8:57 PM CDT
Moon 9:50 AM CDT (10/6) 8:01 PM CDT (10/6)
Length of Visible Light 12h 23m
Length of Day
11h 21m
Waxing Crescent, 3% of the Moon is Illuminated
Oct 6
Waxing Crescent
Oct 11
First Quarter
Oct 18
Full
Oct 26
Last Quarter
Nov 3
New

Hourly Weather History & Observations

Time (CDT) Temp. Windchill Dew Point Humidity Pressure Visibility Wind Dir Wind Speed Gust Speed Precip Events Conditions
12:58 AM 27.7 °F 20.4 °F 24.1 °F 86% 30.09 in 10.0 mi West 6.9 mph - N/A   Clear
1:58 AM 28.2 °F 22.0 °F 25.0 °F 88% 30.09 in 10.0 mi West 5.8 mph - N/A   Clear
2:58 AM 28.4 °F 19.7 °F 25.3 °F 88% 30.08 in 10.0 mi West 9.2 mph - N/A   Clear
3:58 AM 29.1 °F 22.1 °F 24.6 °F 83% 30.06 in 10.0 mi WSW 6.9 mph - N/A   Clear
4:13 AM 26.6 °F 22.6 °F 23.0 °F 86% 30.00 in 8.0 mi South 3.5 mph - N/A   Clear
4:23 AM 28.4 °F 22.2 °F 23.0 °F 80% 30.00 in 10.0 mi South 5.8 mph - N/A   Clear
4:58 AM 28.2 °F 19.5 °F 24.4 °F 86% 30.05 in 10.0 mi SSW 9.2 mph - N/A   Clear
5:58 AM 30.2 °F 25.4 °F 25.3 °F 82% 30.04 in 10.0 mi WSW 4.6 mph - N/A   Clear
6:58 AM 28.8 °F 19.5 °F 25.0 °F 86% 30.04 in 10.0 mi West 10.4 mph - N/A   Clear
7:58 AM 33.3 °F 26.4 °F 29.1 °F 85% 30.04 in 10.0 mi West 8.1 mph - N/A   Clear
8:58 AM 37.6 °F 32.3 °F 32.2 °F 81% 30.04 in 10.0 mi West 6.9 mph - N/A   Clear
9:58 AM 46.2 °F 41.7 °F 33.1 °F 60% 30.04 in 10.0 mi West 9.2 mph - N/A   Clear
10:58 AM 54.7 °F - 33.6 °F 45% 30.01 in 10.0 mi West 12.7 mph - N/A   Clear
11:58 AM 61.2 °F - 33.1 °F 35% 30.00 in 10.0 mi West 11.5 mph - N/A   Clear
12:58 PM 64.0 °F - 31.1 °F 29% 29.99 in 10.0 mi West 15.0 mph - N/A   Clear
1:58 PM 67.3 °F - 30.9 °F 26% 29.95 in 10.0 mi West 13.8 mph - N/A   Clear
2:58 PM 69.1 °F - 30.4 °F 24% 29.92 in 10.0 mi West 20.7 mph 24.2 mph N/A   Clear
3:58 PM 70.3 °F - 35.2 °F 28% 29.91 in 10.0 mi WNW 17.3 mph - N/A   Clear
4:58 PM 70.5 °F - 36.5 °F 29% 29.91 in 10.0 mi WNW 20.7 mph 26.5 mph N/A   Clear
5:58 PM 68.7 °F - 37.2 °F 31% 29.91 in 10.0 mi WNW 16.1 mph 27.6 mph N/A   Clear
6:58 PM 63.1 °F - 41.2 °F 45% 29.92 in 10.0 mi NW 8.1 mph - N/A   Clear
7:58 PM 50.5 °F - 39.2 °F 65% 29.96 in 10.0 mi NW 9.2 mph - N/A   Clear
8:58 PM 47.5 °F - 38.3 °F 70% 29.96 in 10.0 mi NW 9.2 mph - N/A   Clear
9:58 PM 44.4 °F 40.0 °F 37.2 °F 76% 29.96 in 10.0 mi NW 8.1 mph - N/A   Clear
10:58 PM 45.0 °F 40.6 °F 37.9 °F 76% 29.97 in 10.0 mi NW 8.1 mph - N/A   Scattered Clouds
11:58 PM 48.4 °F - 39.6 °F 72% 29.96 in 10.0 mi NW 6.9 mph - N/A   Overcast